TimeCDT,TemperatureF,Dew PointF,Humidity,Sea Level PressureIn,VisibilityMPH,Wind Direction,Wind SpeedMPH,Gust SpeedMPH,PrecipitationIn,Events,Conditions,WindDirDegrees,DateUTC
12:15 AM,61.5,58.3,89,30.09,10.0,Calm,Calm,-,N/A,,Clear,0,2013-09-04 05:15:00
12:35 AM,60.3,57.7,91,30.10,10.0,Calm,Calm,-,N/A,,Clear,0,2013-09-04 05:35:00
12:55 AM,59.7,57.0,91,30.10,10.0,Calm,Calm,-,N/A,,Clear,0,2013-09-04 05:55:00
1:15 AM,59.2,56.5,91,30.10,10.0,Calm,Calm,-,N/A,,Clear,0,2013-09-04 06:15:00
1:35 AM,58.6,56.1,91,30.09,10.0,Calm,Calm,-,N/A,,Clear,0,2013-09-04 06:35:00
1:55 AM,58.5,56.1,92,30.09,10.0,Calm,Calm,-,N/A,,Clear,0,2013-09-04 06:55:00
2:15 AM,58.1,55.6,91,30.09,10.0,Calm,Calm,-,N/A,,Clear,0,2013-09-04 07:15:00
2:35 AM,57.9,55.4,91,30.09,10.0,Calm,Calm,-,N/A,,Clear,0,2013-09-04 07:35:00
2:55 AM,58.1,55.6,91,30.09,10.0,Calm,Calm,-,N/A,,Clear,0,2013-09-04 07:55:00
3:15 AM,57.4,55.0,92,30.09,10.0,Calm,Calm,-,N/A,,Clear,0,2013-09-04 08:15:00
3:35 AM,57.2,55.2,93,30.09,10.0,Calm,Calm,-,N/A,,Clear,0,2013-09-04 08:35:00
3:55 AM,57.2,54.9,92,30.09,4.0,Calm,Calm,-,N/A,,Clear,0,2013-09-04 08:55:00
4:15 AM,57.2,54.7,91,30.09,10.0,Calm,Calm,-,N/A,,Clear,0,2013-09-04 09:15:00
4:35 AM,56.8,54.5,92,30.09,10.0,Calm,Calm,-,N/A,,Clear,0,2013-09-04 09:35:00
4:55 AM,56.8,54.5,92,30.10,10.0,Calm,Calm,-,N/A,,Clear,0,2013-09-04 09:55:00
5:15 AM,56.5,54.5,93,30.10,2.0,Calm,Calm,-,N/A,,Clear,0,2013-09-04 10:15:00
5:35 AM,56.3,54.5,94,30.11,7.0,Calm,Calm,-,N/A,,Clear,0,2013-09-04 10:35:00
5:55 AM,56.3,54.3,93,30.11,7.0,Calm,Calm,-,N/A,,Clear,0,2013-09-04 10:55:00
6:15 AM,55.2,53.2,93,30.12,7.0,Calm,Calm,-,N/A,,Clear,0,2013-09-04 11:15:00
6:35 AM,55.4,53.6,94,30.13,10.0,Calm,Calm,-,N/A,,Clear,0,2013-09-04 11:35:00
6:55 AM,56.3,54.1,92,30.13,7.0,Calm,Calm,-,N/A,,Unknown,0,2013-09-04 11:55:00
7:15 AM,57.7,55.6,92,30.14,10.0,Calm,Calm,-,N/A,,Unknown,0,2013-09-04 12:15:00
7:35 AM,59.2,57.2,93,30.15,7.0,Calm,Calm,-,N/A,,Unknown,0,2013-09-04 12:35:00
7:55 AM,62.8,60.6,93,30.15,10.0,Calm,Calm,-,N/A,,Unknown,0,2013-09-04 12:55:00
8:15 AM,65.7,62.2,89,30.16,10.0,Calm,Calm,-,N/A,,Clear,0,2013-09-04 13:15:00
8:35 AM,68.2,61.9,80,30.16,10.0,Calm,Calm,-,N/A,,Clear,0,2013-09-04 13:35:00
8:55 AM,70.9,62.4,75,30.16,10.0,Calm,Calm,-,N/A,,Clear,0,2013-09-04 13:55:00
9:15 AM,72.5,61.5,68,30.17,10.0,Calm,Calm,-,N/A,,Clear,0,2013-09-04 14:15:00
9:35 AM,74.7,61.0,62,30.17,10.0,Calm,Calm,-,N/A,,Clear,0,2013-09-04 14:35:00
9:55 AM,75.7,60.4,59,30.17,10.0,Calm,Calm,-,N/A,,Clear,0,2013-09-04 14:55:00
10:15 AM,76.6,60.3,57,30.17,10.0,Calm,Calm,-,N/A,,Clear,0,2013-09-04 15:15:00
10:35 AM,77.5,60.6,56,30.18,10.0,North,3.5,-,N/A,,Clear,360,2013-09-04 15:35:00
10:55 AM,78.3,61.0,55,30.17,10.0,NNE,4.6,-,N/A,,Clear,20,2013-09-04 15:55:00
11:15 AM,79.2,60.1,52,30.18,10.0,North,6.9,-,N/A,,Clear,10,2013-09-04 16:15:00
11:35 AM,79.7,59.9,51,30.17,10.0,Calm,Calm,-,N/A,,Clear,0,2013-09-04 16:35:00
11:55 AM,80.2,60.3,50,30.17,10.0,Calm,Calm,-,N/A,,Clear,0,2013-09-04 16:55:00
12:15 PM,81.5,60.4,49,30.17,10.0,NE,5.8,-,N/A,,Clear,40,2013-09-04 17:15:00
12:35 PM,80.8,59.7,49,30.16,10.0,North,3.5,-,N/A,,Clear,350,2013-09-04 17:35:00
12:55 PM,82.0,60.6,48,30.16,10.0,NNE,3.5,-,N/A,,Clear,20,2013-09-04 17:55:00
1:15 PM,81.5,60.3,48,30.16,10.0,Calm,Calm,-,N/A,,Clear,0,2013-09-04 18:15:00
1:35 PM,81.9,60.1,47,30.16,10.0,Calm,Calm,-,N/A,,Clear,0,2013-09-04 18:35:00
1:55 PM,82.2,59.5,46,30.16,10.0,North,3.5,-,N/A,,Clear,360,2013-09-04 18:55:00
2:15 PM,83.5,59.5,44,30.15,10.0,Calm,Calm,-,N/A,,Clear,0,2013-09-04 19:15:00
2:35 PM,83.8,59.4,43,30.14,10.0,Calm,Calm,-,N/A,,Clear,0,2013-09-04 19:35:00
2:55 PM,83.7,58.3,42,30.14,10.0,Calm,Calm,-,N/A,,Clear,0,2013-09-04 19:55:00
3:15 PM,83.7,59.4,44,30.13,10.0,NNE,3.5,-,N/A,,Clear,30,2013-09-04 20:15:00
3:35 PM,84.4,58.6,42,30.13,10.0,Calm,Calm,-,N/A,,Clear,0,2013-09-04 20:35:00
3:55 PM,84.6,59.5,43,30.12,10.0,Calm,Calm,-,N/A,,Clear,0,2013-09-04 20:55:00
4:15 PM,84.6,59.7,43,30.12,10.0,NNE,4.6,-,N/A,,Clear,30,2013-09-04 21:15:00
4:35 PM,84.4,59.7,43,30.12,10.0,Calm,Calm,-,N/A,,Clear,0,2013-09-04 21:35:00
4:55 PM,84.6,59.5,43,30.12,10.0,NNE,3.5,-,N/A,,Clear,30,2013-09-04 21:55:00
5:15 PM,84.2,58.8,42,30.11,10.0,Calm,Calm,-,N/A,,Clear,0,2013-09-04 22:15:00
5:35 PM,83.8,58.8,43,30.12,10.0,Calm,Calm,-,N/A,,Clear,0,2013-09-04 22:35:00
5:55 PM,83.5,59.0,43,30.12,10.0,Calm,Calm,-,N/A,,Clear,0,2013-09-04 22:55:00
6:15 PM,82.9,59.7,45,30.11,10.0,Calm,Calm,-,N/A,,Clear,0,2013-09-04 23:15:00
6:35 PM,81.5,61.5,51,30.12,10.0,Calm,Calm,-,N/A,,Clear,0,2013-09-04 23:35:00
6:55 PM,79.2,64.0,60,30.12,10.0,Calm,Calm,-,N/A,,Clear,0,2013-09-04 23:55:00
7:15 PM,74.5,65.5,73,30.12,10.0,Calm,Calm,-,N/A,,Clear,0,2013-09-05 00:15:00
7:35 PM,71.6,65.3,80,30.12,10.0,Calm,Calm,-,N/A,,Clear,0,2013-09-05 00:35:00
7:55 PM,70.2,64.4,82,30.12,10.0,Calm,Calm,-,N/A,,Clear,0,2013-09-05 00:55:00
8:15 PM,68.5,64.2,86,30.13,10.0,Calm,Calm,-,N/A,,Clear,0,2013-09-05 01:15:00
8:35 PM,67.3,63.3,87,30.13,10.0,Calm,Calm,-,N/A,,Clear,0,2013-09-05 01:35:00
8:55 PM,66.7,63.3,89,30.14,10.0,Calm,Calm,-,N/A,,Clear,0,2013-09-05 01:55:00
9:15 PM,65.8,62.6,89,30.15,10.0,Calm,Calm,-,N/A,,Clear,0,2013-09-05 02:15:00
9:35 PM,65.5,62.2,89,30.14,10.0,Calm,Calm,-,N/A,,Clear,0,2013-09-05 02:35:00
9:55 PM,64.4,61.7,91,30.15,10.0,Calm,Calm,-,N/A,,Clear,0,2013-09-05 02:55:00
10:15 PM,64.2,61.0,89,30.15,10.0,Calm,Calm,-,N/A,,Unknown,0,2013-09-05 03:15:00
10:35 PM,63.5,60.8,91,30.15,10.0,Calm,Calm,-,N/A,,Unknown,0,2013-09-05 03:35:00
10:55 PM,63.5,60.8,91,30.16,10.0,Calm,Calm,-,N/A,,Unknown,0,2013-09-05 03:55:00
11:15 PM,62.6,59.9,91,30.16,7.0,Calm,Calm,-,N/A,,Unknown,0,2013-09-05 04:15:00
11:35 PM,62.6,59.7,90,30.16,10.0,Calm,Calm,-,N/A,,Unknown,0,2013-09-05 04:35:00
11:55 PM,62.1,59.4,91,30.16,10.0,Calm,Calm,-,N/A,,Unknown,0,2013-09-05 04:55:00